Simultaneous Nadir Overpasses (SNOs) Predictions

Prediction of SNOs between GOES-16 and FY3D Satellite Orbit:

Table of predicted SNOs for the next 14.0 days since TLE Epoch: 10/5/2024
Index Date Time (GOES-16) GOES-16 Lat,Lon FY3D Lat,Lon Distance(km) Time Diff (sec)
1 10/05/2024 07:26:37 0.05, -75.20 -0.87, -71.25 450.95 80
2 10/06/2024 19:46:02 -0.04, -75.21 -0.32, -76.55 152.72 80
3 10/07/2024 19:30:02 -0.04, -75.21 0.67, -72.02 363.53 80
4 10/09/2024 07:49:19 0.03, -75.21 0.48, -77.29 237.02 80
5 10/10/2024 07:33:19 0.04, -75.21 -0.52, -72.77 279.33 80
6 10/11/2024 19:52:44 -0.02, -75.23 -0.66, -78.07 323.64 80
7 10/12/2024 19:36:44 -0.02, -75.23 0.36, -73.54 193.21 80
8 10/14/2024 07:55:59 0.02, -75.24 0.81, -78.80 405.89 80
9 10/15/2024 07:40:00 0.02, -75.25 -0.23, -74.28 111.56 80
10 10/16/2024 19:59:22 -0.01, -75.28 -1.01, -79.56 489.67 80
11 10/17/2024 19:43:23 -0.02, -75.29 0.05, -75.04 28.29 80
